Date String (YYYY-MM-DD hh:mm:ss) UTC,Instrument flags,absolute air pressure of the measurement (hPa),sample flow rate (lpm),inlet stack bypass flow (lpm),air temperature of the measurement (°C),ambient temperature measured by the external sensor (°C),aerosol sample conditioner tube jacket temperature (°C),OPC LED temperature (°C),internal box temperature (°C),relative humidity of the measurement (%),span deviation,mass concentration of particles derived from Lorenz-Mie calculation of OPC scattering (μg/m³),mass concentration of particles derived from Lorenz-Mie calculation of OPC scattering (μg/m³),mass concentration of particles derived from Lorenz-Mie calculation of OPC scattering (μg/m³)
DateTimeUTC,F1_M11,P_M11,Q1_M11,Q2_M11,T1_M11,T2_M11,T3_M11,T4_M11,T5_M11,U1_M11,ZSPAN_M11,X2_M11,X0_M11,X1_M11
2023-11-23 14:00:00,SystemResetWarning,0831.7,4.99,000.00,023.8,022.8,000.0,032.1,025.0,12.0,0000.0,0002.68,0008.78,0001.62
2023-11-23 14:01:00,SystemResetWarning,0831.7,4.99,000.00,023.7,022.8,000.0,032.1,025.0,12.0,0000.0,0002.68,0009.12,0001.61
2023-11-23 14:02:00,SystemResetWarning,0831.7,5.00,000.00,023.7,022.8,000.0,032.1,025.0,12.1,0000.0,0002.73,0009.87,0001.61
2023-11-23 14:03:00,SystemResetWarning,0831.7,5.00,000.00,023.7,022.8,000.0,032.1,025.0,12.1,0000.0,0002.68,0009.85,0001.60
2023-11-23 14:04:00,SystemResetWarning,0831.8,5.00,000.00,023.7,022.8,000.0,032.1,025.0,12.0,0000.0,0002.66,0009.78,0001.59
2023-11-23 14:05:00,SystemResetWarning,0832.2,5.00,000.00,023.7,022.8,000.0,032.1,025.0,12.0,0000.0,0002.69,0009.48,0001.57
2023-11-23 14:06:00,SystemResetWarning,0831.9,5.00,000.00,023.8,022.8,000.0,032.1,025.0,12.0,0000.0,0002.74,0009.41,0001.56
2023-11-23 14:07:00,SystemResetWarning,0831.8,5.00,000.00,023.7,022.8,000.0,032.1,025.0,12.0,0000.0,0002.76,0009.46,0001.55
2023-11-23 14:08:00,SystemResetWarning,0831.9,4.99,000.00,023.7,022.8,000.0,032.1,025.0,12.0,0000.0,0002.76,0009.78,0001.54
2023-11-23 14:09:00,SystemResetWarning,0831.8,4.99,000.00,023.7,022.8,000.0,032.1,025.0,12.0,0000.0,0002.73,0009.46,0001.54
2023-11-23 14:10:00,SystemResetWarning,0831.8,5.01,000.00,023.7,022.8,000.0,032.1,025.0,12.0,0000.0,0002.70,0009.34,0001.53
2023-11-23 14:11:00,SystemResetWarning,0832.0,5.00,000.00,023.7,022.8,000.0,032.1,025.0,12.0,0000.0,0002.67,0010.45,0001.50
2023-11-23 14:12:00,SystemResetWarning,0832.3,5.00,000.00,023.7,022.8,000.0,032.1,025.0,12.0,0000.0,0002.68,0011.09,0001.50
2023-11-23 14:13:00,SystemResetWarning,0831.8,5.01,000.00,023.7,022.8,000.0,032.1,025.0,12.0,0000.0,0002.64,0010.26,0001.47
2023-11-23 14:14:00,SystemResetWarning,0831.7,5.01,000.00,023.7,022.8,000.0,032.1,025.0,11.9,0000.0,0002.64,0010.21,0001.48
2023-11-23 14:15:00,SystemResetWarning,0831.7,5.00,000.00,023.7,022.8,000.0,032.1,025.0,12.0,0000.0,0002.68,0010.34,0001.49
2023-11-23 14:16:00,SystemResetWarning,0831.7,5.00,000.00,023.7,022.8,000.0,032.1,025.0,12.0,0000.0,0002.61,0010.01,0001.50
2023-11-23 14:17:00,SystemResetWarning,0831.7,5.00,000.00,023.7,022.8,000.0,032.1,025.0,12.0,0000.0,0002.58,0009.86,0001.50
2023-11-23 14:18:00,SystemResetWarning,0831.7,4.99,000.00,023.7,022.8,000.0,032.1,024.9,12.0,0000.0,0002.61,0009.75,0001.50
2023-11-23 14:19:00,SystemResetWarning,0831.7,5.00,000.00,023.7,022.8,000.0,032.0,025.0,12.0,0000.0,0002.60,0009.21,0001.52
2023-11-23 14:20:00,SystemResetWarning,0831.7,5.01,000.00,023.7,022.8,000.0,032.0,025.0,12.0,0000.0,0002.60,0009.14,0001.51
2023-11-23 14:21:00,SystemResetWarning,0831.7,5.01,000.00,023.7,022.8,000.0,032.0,025.0,12.0,0000.0,0002.64,0009.30,0001.54
2023-11-23 14:22:00,SystemResetWarning,0831.7,5.01,000.00,023.7,022.8,000.0,032.0,025.0,11.9,0000.0,0002.75,0008.49,0001.56
2023-11-23 14:23:00,SystemResetWarning,0831.7,4.99,000.00,023.7,022.8,000.0,032.0,025.0,12.0,0000.0,0002.79,0007.26,0001.58
2023-11-23 14:24:00,SystemResetWarning,0832.0,4.99,000.00,023.7,022.8,000.0,032.0,025.0,12.0,0000.0,0002.79,0006.96,0001.60
2023-11-23 14:25:00,SystemResetWarning,0832.1,5.01,000.00,023.7,022.8,000.0,032.0,025.0,12.0,0000.0,0002.79,0007.14,0001.60
2023-11-23 14:26:00,SystemResetWarning,0831.8,5.01,000.00,023.7,022.8,000.0,032.0,025.0,12.0,0000.0,0002.75,0007.16,0001.61
2023-11-23 14:27:00,SystemResetWarning,0831.9,4.99,000.00,023.7,022.8,000.0,032.0,025.0,12.0,0000.0,0002.76,0007.57,0001.61
2023-11-23 14:28:00,SystemResetWarning,0831.9,4.99,000.00,023.7,022.8,000.0,032.0,024.9,12.0,0000.0,0002.76,0007.68,0001.62
2023-11-23 14:29:00,SystemResetWarning,0831.9,5.00,000.00,023.7,022.8,000.0,032.0,024.9,12.0,0000.0,0002.74,0008.08,0001.64
2023-11-23 14:30:00,SystemResetWarning,0831.9,5.01,000.00,023.7,022.8,000.0,032.0,024.9,12.0,0000.0,0002.72,0009.19,0001.65
2023-11-23 14:31:00,SystemResetWarning,0831.9,5.01,000.00,023.7,022.8,000.0,032.0,025.0,12.0,0000.0,0002.78,0009.36,0001.67
2023-11-23 14:32:00,SystemResetWarning,0831.9,5.00,000.00,023.7,022.8,000.0,032.0,024.9,12.0,0000.0,0002.76,0009.09,0001.66
2023-11-23 14:33:00,SystemResetWarning,0831.9,5.00,000.00,023.7,022.8,000.0,032.0,024.9,12.0,0000.0,0002.68,0008.62,0001.65
2023-11-23 14:34:00,SystemResetWarning,0831.9,5.00,000.00,023.7,022.8,000.0,032.0,025.0,12.0,0000.0,0002.61,0008.80,0001.65
2023-11-23 14:35:00,SystemResetWarning,0831.9,5.00,000.00,023.7,022.8,000.0,032.0,025.0,12.0,0000.0,0002.59,0008.77,0001.65
2023-11-23 14:36:00,SystemResetWarning,0831.9,5.00,000.00,023.7,022.8,000.0,032.0,024.9,12.0,0000.0,0002.66,0008.85,0001.66
2023-11-23 14:37:00,SystemResetWarning,0831.9,5.00,000.00,023.7,022.8,000.0,032.0,024.9,12.0,0000.0,0002.73,0008.88,0001.68
2023-11-23 14:38:00,SystemResetWarning,0831.9,5.00,000.00,023.7,022.8,000.0,032.0,025.0,12.1,0000.0,0002.74,0008.38,0001.68
2023-11-23 14:39:00,SystemResetWarning,0831.9,5.00,000.00,023.7,022.8,000.0,032.0,024.9,12.1,0000.0,0002.76,0008.32,0001.68
2023-11-23 14:40:00,SystemResetWarning,0831.9,4.99,000.00,023.7,022.8,000.0,032.0,025.0,12.0,0000.0,0002.78,0008.05,0001.69
2023-11-23 14:41:00,SystemResetWarning,0832.0,4.99,000.00,023.7,022.8,000.0,032.0,024.9,12.0,0000.0,0002.82,0006.70,0001.69
2023-11-23 14:42:00,SystemResetWarning,0832.0,5.01,000.00,023.7,022.8,000.0,032.0,024.9,12.0,0000.0,0002.80,0006.54,0001.70
2023-11-23 14:43:00,SystemResetWarning,0832.1,5.01,000.00,023.7,022.8,000.0,032.0,024.9,12.0,0000.0,0002.79,0007.14,0001.71
2023-11-23 14:44:00,SystemResetWarning,0832.0,4.99,000.00,023.7,022.8,000.0,032.0,024.9,12.1,0000.0,0002.85,0008.22,0001.72
2023-11-23 14:45:00,SystemResetWarning,0832.0,4.99,000.00,023.7,022.8,000.0,032.0,025.0,12.1,0000.0,0002.96,0008.86,0001.74
2023-11-23 14:46:00,SystemResetWarning,0832.0,5.00,000.00,023.7,022.8,000.0,032.0,025.0,12.1,0000.0,0003.04,0009.10,0001.75
2023-11-23 14:47:00,SystemResetWarning,0832.0,5.01,000.00,023.7,022.8,000.0,032.0,025.0,12.1,0000.0,0003.05,0009.06,0001.77
2023-11-23 14:48:00,SystemResetWarning,0832.0,5.01,000.00,023.7,022.8,000.0,032.0,025.0,12.1,0000.0,0003.03,0009.56,0001.78
2023-11-23 14:49:00,SystemResetWarning,0832.0,5.00,000.00,023.7,022.8,000.0,032.0,025.0,12.1,0000.0,0003.11,0009.80,0001.80
2023-11-23 14:50:00,SystemResetWarning,0832.0,4.99,000.00,023.7,022.7,000.0,032.0,025.0,12.1,0000.0,0003.17,0009.97,0001.81
2023-11-23 14:51:00,SystemResetWarning,0832.0,4.99,000.00,023.7,022.8,000.0,032.0,025.0,12.1,0000.0,0003.22,0010.09,0001.83
2023-11-23 14:52:00,SystemResetWarning,0832.0,5.00,000.00,023.7,022.8,000.0,032.0,025.0,12.1,0000.0,0003.23,0010.05,0001.86
2023-11-23 14:53:00,SystemResetWarning,0832.0,4.99,000.00,023.7,022.8,000.0,032.0,025.0,12.2,0000.0,0003.22,0010.02,0001.86
2023-11-23 14:54:00,SystemResetWarning,0832.0,5.00,000.00,023.7,022.8,000.0,032.0,024.9,12.2,0000.0,0003.25,0009.85,0001.89
2023-11-23 14:55:00,SystemResetWarning,0832.1,5.01,000.00,023.7,022.7,000.0,032.0,024.9,12.2,0000.0,0003.25,0009.01,0001.91
2023-11-23 14:56:00,SystemResetWarning,0832.0,5.01,000.00,023.7,022.7,000.0,032.0,024.9,12.3,0000.0,0003.24,0008.79,0001.92
2023-11-23 14:57:00,SystemResetWarning,0832.0,5.01,000.00,023.7,022.7,000.0,032.0,024.9,12.3,0000.0,0003.22,0008.99,0001.92
2023-11-23 14:58:00,SystemResetWarning,0832.1,5.00,000.00,023.7,022.8,000.0,032.0,024.9,12.2,0000.0,0003.20,0009.59,0001.92
2023-11-23 14:59:00,SystemResetWarning,0832.1,5.00,000.00,023.7,022.8,000.0,032.0,024.9,12.2,0000.0,0003.20,0009.39,0001.92
